Погода в Виловатове

Россия / Республика Марий Эл     56°10′34″N   46°36′21″E
темп.,
°C
ветер,
м/с
пор.,
м/с
влажн.,
%
обл.,
%
осадки,
мм/ч
давл.,
гПа
погр.,
м
18 сентября, сб
сб1800:00+2сз37955 0.0 1018170
03:00+2сз3893100 0.0 1019335
06:00+5сз4890100 0.1 1020631
09:00+7ссз576830 0.1 10211104
12:00+9с564396 0.1 10211706
15:00+10с563989 0.1 10221888
18:00+6ссв475940 0.0 1023150
21:00+3ссз22775 0.0 102425
19 сентября, вс
вс1900:00+1с22865 0.0 102512
03:000ссз22876 0.0 102515
06:00−1сз1189100 0.0 102612
09:00+5ссз3459100 0.0 1027440
12:00+8ссз2345100 0.0 10261179
15:00+10с334165 0.0 10251334
18:00+6ссв2258100 0.0 102511
21:00+4всв226798 0.0 102511
20 сентября, пн
пн2000:00+2всв4978100 0.0 1026212
03:000в41085100 0.0 1027236
06:00+1всв41078100 0.0 1027318
09:00+5в6858100 0.0 1027581
12:00+8в5647100 0.0 10261028
15:00+9в5745100 0.0 10261085
18:00+7в5949100 0.0 1025506
21:00+6в51052100 0.0 1025495
21 сентября, вт
вт2100:00+6в61253100 0.0 1025443
03:00+6в61257100 0.0 1023414
06:00+5в61362100 0.1 1022551
09:00+5в71481100 0.9 1022600
12:00+5в71486100 0.8 1021611
15:00+6в81482100 0.8 1020649
18:00+6вюв61381100 0.0 1019601
21:00+4в6138459 0.0 1018401
22 сентября, ср
ср2200:00+4в51383100 0.0 1016365
03:00+5в51377100 0.0 1014409
06:00+6в71678100 0.4 1012520
09:00+7в61480100 1.4 1012574
12:00+7в41291100 4.6 1011610
15:00+7св2699100 14.4 1010298
18:00+8ю1299100 2.8 101146
21:00+7юз239770 2.8 1013102